STARLINK-2413, 47827

Orbit data source: Space-Track

STARLINK-2413, 47827 is a payload satellite owned by SpaceX/Seattle (US) in LEO that was launched on Thu, 11 Mar 2021 UTC via an FALCON 9 launch vehicle from the Air Force Eastern Test Range (AFETR). Payload-class satellites include a variety of spacecraft equipped with specific instruments for various scientific and technological missions. These include communications satellites like Starlink; space stations such as the ISS; scientific satellites like the Hubble; Earth observation satellites from companies like Planet Labs, Umbra, and HawkEye 360; GPS; miniature CubeSats for education and research; and military/defense satellites.

Loading next visibility...
Identifier
47827, 2021-018AS
Orbit
LEO
Country
Flag of USUS
Related business
Manufacturer
SpaceX/Seattle
Mission
Operational Commercial Communications
Bus & Motor
STARLINK, Unknown motor
Mass
260 kg wet, ~248 kg dry
Launch date (UTC)
2021-03-11 (5 years ago)
Launch vehicle
FALCON 9
Launch site
Air Force Eastern Test Range (AFETR)
Object type
Payload
Rocket body
Debris
Shape & HBR
Box + 1 Pan, 10.1 m
Radar Cross Section
13.562 m², Large (>1 m²)

Expand to show TLE details & history
Last TLE update: 3 days ago

TLE from 3 days ago
0 STARLINK-2413
1 47827U 21018AS  26170.61360201  .00000438  00000-0  25892-4 0  9990
2 47827  53.1601 128.4216 0001483  88.8946 271.2225 15.31701928292392
Epoch: 2026-06-19T14:43Z
TLE epoch observation values (Epoch: 2026-06-19T14:43:35.213Z)
Latitude
-0.00006°
Longitude
-0.31522°
Altitude
471.613 km
Speed
7.631 km/s
True Right ascension
08h 33m 41s
True Declination
0° 00' 00"
Sunlit
Object was in daylight at epoch
Visualization orbit readout
Latitude
Unknown
Longitude
Unknown
Altitude
Unknown
Speed
Unknown
Apparent Right ascension
Unknown
Apparent Declination
Unknown
Sunlit
N/A
Visualization observer readout
Local Sidereal Time
21:44:05
Azimuth
Unknown
Elevation
Unknown
Doppler factor
Unknown
Orbital elements
Apogee altitude
472.007 km
Perigee altitude
469.975 km
Semi-major axis
6,849.128 km
Eccentricity
0.00015
Inclination
53.1601°
RAAN
128.4216°
Arg. of periapsis
88.8946°
True anomaly
271.20551°
Mean anomaly
271.2225°
Eccentric anomaly
271.214°
Mean motion
3.82904 °/min
Orbital period
94.02 mins
BSTAR
0.000025892
Loading maneuver chart data...
Computing Atmospheric mass density...

Documentation

Showing up to 5 results
|